Corsicana, TX

4:36 PM CST on February 24, 2017 (GMT -0600)
Campbell-Corsicana Municipal

Weather History for KCRS - January, 2014

Change the Weather History Date:

Wednesday, January 1, 2014

  Actual Average (KACT) Record (KACT)
Temperature  
Mean Temperature 50 °F -  
Max Temperature 66 °F 57 °F 86 °F (2006)
Min Temperature 34 °F 36 °F 15 °F (1979)
Degree Days  
Heating Degree Days 15    
Moisture  
Dew Point 40 °F    
Average Humidity 69    
Maximum Humidity 89    
Minimum Humidity 50    
Precipitation  
Precipitation 0.00 in - - ()
Sea Level Pressure  
Sea Level Pressure 30.08 in    
Wind  
Wind Speed 12 mph (SSW)    
Max Wind Speed 24 mph    
Max Gust Speed 34 mph    
Visibility 10 miles    
Events Rain    
Averages and records for this station are not official NWS values.
T = Trace of Precipitation, MM = Missing Value Source: NWS Daily Summary

Daily Weather History Graph

Daily Weather History Graph

Search for Another Location

Airport or City:

Trip Planner

Search our weather history database for the weather conditions in past years. The results will help you decide how hot, cold, wet, or windy it might be!

Date:

Astronomy

Jan. 01, 2014 Rise Set
Actual Time 7:26 AM CST 5:32 PM CST
Civil Twilight 6:59 AM CST 5:59 PM CST
Nautical Twilight 6:28 AM CST 6:29 PM CST
Astronomical Twilight 5:59 AM CST 6:59 PM CST
Moon 7:21 AM CST (1/1) 6:14 PM CST (1/1)
Length of Visible Light 10h 59m
Length of Day
10h 06m
New Moon, 0% of the Moon is Illuminated
Jan 1
New Moon
Jan 7
First Quarter
Jan 15
Full
Jan 23
Last Quarter
Jan 30
New

Hourly Weather History & Observations

Time (CST) Temp. Windchill Dew Point Humidity Pressure Visibility Wind Dir Wind Speed Gust Speed Precip Events Conditions
12:53 AM 34.0 °F 28.0 °F 30.0 °F 85% 30.24 in 10.0 mi South 6.9 mph - N/A   Clear
1:53 AM 35.1 °F 27.9 °F 30.0 °F 82% 30.21 in 10.0 mi South 9.2 mph - N/A   Clear
2:53 AM 34.0 °F 27.2 °F 30.0 °F 85% 30.20 in 10.0 mi South 8.1 mph - N/A   Clear
3:53 AM 34.0 °F 28.0 °F 30.0 °F 85% 30.19 in 9.0 mi SSE 6.9 mph - N/A   Clear
4:53 AM 35.1 °F 28.6 °F 30.9 °F 85% 30.17 in 9.0 mi South 8.1 mph - N/A   Clear
5:53 AM 35.1 °F 27.4 °F 32.0 °F 89% 30.16 in 9.0 mi South 10.4 mph - N/A   Clear
6:53 AM 36.0 °F 28.5 °F 32.0 °F 86% 30.15 in 9.0 mi South 10.4 mph - N/A   Clear
7:53 AM 37.0 °F 29.3 °F 33.1 °F 86% 30.14 in 8.0 mi South 11.5 mph - N/A   Clear
8:53 AM 43.0 °F 37.2 °F 34.0 °F 71% 30.14 in 10.0 mi South 10.4 mph - N/A   Clear
9:53 AM 48.0 °F - 35.1 °F 61% 30.14 in 10.0 mi South 10.4 mph - N/A   Clear
10:53 AM 55.0 °F - 37.9 °F 53% 30.11 in 10.0 mi South 17.3 mph - N/A   Clear
11:53 AM 60.1 °F - 42.1 °F 51% 30.06 in 10.0 mi SSW 17.3 mph - N/A   Clear
12:53 PM 64.0 °F - 45.0 °F 50% 30.02 in 10.0 mi South 18.4 mph 26.5 mph N/A   Clear
1:53 PM 66.0 °F - 46.9 °F 50% 29.99 in 10.0 mi SSW 24.2 mph 34.5 mph N/A   Clear
2:53 PM 66.9 °F - 48.0 °F 51% 29.96 in 10.0 mi SSW 23.0 mph 32.2 mph N/A   Clear
3:53 PM 66.9 °F - 48.9 °F 52% 29.94 in 10.0 mi SSW 24.2 mph 29.9 mph N/A   Clear
4:53 PM 64.9 °F - 48.9 °F 56% 29.95 in 10.0 mi SSW 18.4 mph 25.3 mph N/A   Clear
5:53 PM 62.1 °F - 50.0 °F 65% 29.96 in 10.0 mi South 17.3 mph 26.5 mph N/A   Clear
6:53 PM 60.1 °F - 50.0 °F 69% 29.97 in 10.0 mi South 13.8 mph 24.2 mph N/A   Clear
7:53 PM 57.0 °F - 50.0 °F 77% 29.99 in 10.0 mi South 10.4 mph - N/A   Clear
8:53 PM 55.9 °F - 48.9 °F 77% 30.01 in 10.0 mi SSW 12.7 mph - N/A   Clear
9:31 PM 57.0 °F - 48.9 °F 74% 30.06 in 10.0 mi WNW 15.0 mph 25.3 mph 0.00 in Rain Light Rain
9:53 PM 57.0 °F - 48.9 °F 74% 30.07 in 10.0 mi West 15.0 mph - 0.00 in   Overcast
10:53 PM 52.0 °F - 35.1 °F 53% 30.11 in 10.0 mi NNW 18.4 mph 26.5 mph 0.00 in   Clear
11:53 PM 45.0 °F 37.9 °F 33.1 °F 63% 30.16 in 10.0 mi NNW 16.1 mph 23.0 mph N/A   Clear